Weather History for Osaka Airport, Japan

Change the Weather History Date:

Thursday, November 7, 2013

  Actual Average Record
Temperature  
Mean Temperature 65 °F -  
Max Temperature 71 °F 59 °F 77 °F (2003)
Min Temperature 59 °F 43 °F 37 °F (2002)
Growing Degree Days 15 (Base 50)    
Moisture  
Dew Point 55 °F    
Average Humidity 74    
Maximum Humidity 88    
Minimum Humidity 43    
Precipitation  
Precipitation 0.00 in - - ()
Sea Level Pressure  
Sea Level Pressure 29.97 in    
Wind  
Wind Speed 4 mph ()    
Max Wind Speed 10 mph    
Max Gust Speed -    
Visibility 5.9 miles    
Events Rain    
Averages and records for this station are not official NWS values.
T = Trace of Precipitation, MM = Missing Value Source: Averaged Metar Reports

Daily Weather History Graph

Daily Weather History Graph

Search for Another Location

Airport:

Trip Planner

Search our weather history database for the weather conditions in past years. The results will help you decide how hot, cold, wet, or windy it might be!

Date:

Astronomy

Nov. 07, 2013 Rise Set
Actual Time 6:24 AM JST 4:59 PM JST
Civil Twilight 5:57 AM JST 5:25 PM JST
Nautical Twilight 5:27 AM JST 5:55 PM JST
Astronomical Twilight 4:58 AM JST 6:25 PM JST
Moon 9:57 AM JST (11/7) 8:30 PM JST (11/7)
Length of Visible Light 11h 27m
Length of Day
10h 34m
Waxing Crescent, 17% of the Moon is Illuminated
Nov 7
Waxing Crescent
Nov 10
First Quarter
Nov 18
Full
Nov 26
Last Quarter
Dec 3
New

Hourly Weather History & Observations

Time (JST) Temp. Dew Point Humidity Pressure Visibility Wind Dir Wind Speed Gust Speed Precip Events Conditions
5:00 AM 59.0 °F 55.4 °F 88% 29.98 in 6.2 mi East 4.6 mph - N/A   Mostly Cloudy
6:00 AM 59.0 °F 55.4 °F 88% 29.98 in 6.2 mi North 3.5 mph - N/A   Mostly Cloudy
7:00 AM 59.0 °F 55.4 °F 88% 29.98 in 6.2 mi Variable 2.3 mph - N/A   Mostly Cloudy
8:00 AM 60.8 °F 55.4 °F 82% 29.98 in 6.2 mi WNW 2.3 mph - N/A   Mostly Cloudy
9:00 AM 62.6 °F 57.2 °F 82% 29.98 in 6.2 mi East 3.5 mph - N/A   Mostly Cloudy
10:00 AM 64.4 °F 55.4 °F 73% 29.98 in 6.2 mi Variable 2.3 mph - N/A   Mostly Cloudy
10:43 AM 64.4 °F 57.2 °F 77% 29.98 in 6.2 mi ESE 3.5 mph - N/A Rain Rain Showers
11:00 AM 64.4 °F 57.2 °F 77% 29.98 in 6.2 mi Variable 2.3 mph - N/A Rain Light Rain Showers
11:06 AM 64.4 °F 57.2 °F 77% 29.98 in 6.2 mi Variable 2.3 mph - N/A Rain Rain Showers
11:15 AM 64.4 °F 57.2 °F 77% 29.98 in 5.6 mi Variable 2.3 mph - N/A Rain Rain Showers
11:21 AM 62.6 °F 57.2 °F 82% 29.95 in 3.7 mi NNW 6.9 mph - N/A Rain Heavy Rain Showers
11:27 AM 62.6 °F 59.0 °F 88% 29.98 in 4.3 mi West 4.6 mph - N/A Rain Heavy Rain Showers
11:33 AM 62.6 °F 59.0 °F 88% 29.95 in 5.0 mi Variable 2.3 mph - N/A Rain Rain Showers
11:46 AM 62.6 °F 59.0 °F 88% 29.95 in 5.0 mi Variable 2.3 mph - N/A Rain Light Rain Showers
12:00 PM 64.4 °F 59.0 °F 83% 29.95 in 5.6 mi Variable 2.3 mph - N/A   Mostly Cloudy
1:00 PM 69.8 °F 57.2 °F 64% 29.92 in 6.2 mi WSW 10.4 mph - N/A   Scattered Clouds
2:00 PM 69.8 °F 55.4 °F 60% 29.92 in 6.2 mi West 8.1 mph - N/A   Scattered Clouds
3:00 PM 71.6 °F 55.4 °F 57% 29.95 in 6.2 mi WNW 6.9 mph - N/A   Partly Cloudy
4:00 PM 69.8 °F 55.4 °F 60% 29.95 in 6.2 mi WSW 6.9 mph - N/A   Partly Cloudy
5:00 PM 68.0 °F 53.6 °F 60% 29.98 in 6.2 mi WSW 9.2 mph - N/A   Partly Cloudy
6:00 PM 66.2 °F 42.8 °F 43% 30.01 in 6.2 mi WNW 8.1 mph - N/A   Partly Cloudy
7:00 PM 62.6 °F 48.2 °F 59% 30.04 in 6.2 mi WNW 5.8 mph - N/A   Partly Cloudy
8:00 PM 59.0 °F 46.4 °F 63% 30.04 in 6.2 mi NW 6.9 mph - N/A   Partly Cloudy